Regional Weather Roundup
Issued by NWS Albany, NY

Home | Current Version | Previous Version | Text Only | Print | Product List | Glossary On
Versions: 1 2 3 4 5 6 7 8 9 10 11 12 13 14 15 16 17 18 19 20 21 22 23 24 25 26 27 28 29 30 31 32 33 34 35 36 37 38 39 40 41 42 43 44 45 46 47 48
000
ASUS41 KALY 300810
RWRALY

NEW YORK STATE HOURLY WEATHER ROUNDUP
NATIONAL WEATHER SERVICE ALBANY NY
400 AM EDT TUE SEP 30 2014

NOTE: "FAIR" INDICATES FEW OR NO CLOUDS BELOW 12,000 FEET WITH NO
SIGNIFICANT WEATHER AND/OR NO OBSTRUCTIONS TO VISIBILITY.

NYZ032-033-038>043-046>054-057>066-NYZ062>081-300900-
EAST


CITY           SKY/WX    TMP DP  RH WIND       PRES   REMARKS
ALBANY         MOCLDY    56  55  97 CALM      29.94S FOG
GLENS FALLS    CLOUDY    54  53  97 CALM      29.95S
POUGHKEEPSIE   CLOUDY    61  58  90 CALM      29.92S
NEWBURGH       CLEAR     63  61  94 CALM      29.94S
MONTGOMERY     MOCLDY    56  54  93 CALM      29.92S
WHITE PLAINS   FOG       65  64  97 E3        29.93S VSB 1
ISLIP          CLOUDY    66  64  93 W3        29.92R
NEW YORK CITY  CLOUDY    70  58  65 S5        29.92S
CENTRAL PARK   CLOUDY    69  56  62 W3        29.95S
$$

NYZ005>009-017-018-044>046-055-056-300900-
CENTRAL


CITY           SKY/WX    TMP DP  RH WIND       PRES   REMARKS
FULTON         CLEAR     58  55  90 CALM      29.87F
SYRACUSE       PTCLDY    56  54  93 E3        29.88S
ROME           CLEAR     54  53  97 SE5       29.92S
ELMIRA         FOG       46  46 100 CALM      29.90R VSB 3/4
BINGHAMTON     MOCLDY    56  53  90 SE6       29.92S
MONTICELLO     PTCLDY    54  52  94 E3        29.96S
$$

NYZ026>034-041>043-300900-
NORTH


CITY           SKY/WX    TMP DP  RH WIND       PRES   REMARKS
WATERTOWN      MOCLDY    54  49  83 CALM      29.88S
FORT DRUM      NOT AVBL
MASSENA        CLOUDY    49  47  93 E8        29.96S FOG
SARANAC LAKE   MOCLDY    42  41  96 CALM      29.94S
PLATTSBURGH    CLOUDY    48  44  86 CALM      29.97S
$$

NYZ001>004-010>016-019>021-300900-
WEST


CITY           SKY/WX    TMP DP  RH WIND       PRES   REMARKS
NIAGARA FALLS  PTCLDY    57  53  86 CALM      29.86F FOG
BUFFALO        PTCLDY    55  52  89 S5        29.87F
DUNKIRK        PTCLDY    52  50  93 SE3       29.87F
JAMESTOWN      CLOUDY    46  46 100 S3        29.90F VSB<1/4
WELLSVILLE     FOG       52  50  93 CALM      29.93S VSB 1/2
ROCHESTER      MOCLDY    57  55  93 CALM      29.88S
PENN YAN       CLEAR     57  55  93 SW5       29.88F
$$

             KEY
       WCI = WIND CHILL INDEX
       VSB = VISIBILITY
       HX  = HEAT INDEX
$$


USA.gov is the U.S. government's official web portal to all federal, state and local government web resources and services.